Atlantic City, NJ

8:25 AM EDT on May 28, 2017 (GMT -0400)
Atlantic City International

Weather History for KACY - March, 2013

Change the Weather History Date:

Friday, March 1, 2013

  Actual Average Record
Temperature  
Mean Temperature 39 °F 38 °F  
Max Temperature 46 °F 48 °F 73 °F (2017)
Min Temperature 31 °F 29 °F 5 °F (1980)
Degree Days  
Heating Degree Days 26 27  
Month to date heating degree days 26 27  
Since 1 July heating degree days 3444 3618  
Cooling Degree Days 0 0  
Month to date cooling degree days 0 0  
Year to date cooling degree days 0 0  
Moisture  
Dew Point 27 °F    
Average Humidity 65    
Maximum Humidity 85    
Minimum Humidity 45    
Precipitation  
Precipitation 0.00 in 0.13 in 2.02 in (1914)
Month to date precipitation 0.00 0.13  
Year to date precipitation 7.46 6.22  
Snow  
Snow 0.00 in 0.10 in 8.00 in (1914)
Month to date snowfall 0.0 0.1  
Since 1 July snowfall 11.4 15.2  
Snow Depth 0.00 in    
Sea Level Pressure  
Sea Level Pressure 29.74 in    
Wind  
Wind Speed 12 mph (WNW)    
Max Wind Speed 24 mph    
Max Gust Speed 29 mph    
Visibility 9 miles    
Events      
T = Trace of Precipitation, MM = Missing Value Source: NWS Daily Summary

Daily Weather History Graph

Daily Weather History Graph

Search for Another Location

Airport or City:

Trip Planner

Search our weather history database for the weather conditions in past years. The results will help you decide how hot, cold, wet, or windy it might be!

Date:

Astronomy

Mar. 01, 2013 Rise Set
Actual Time 6:30 AM EST 5:50 PM EST
Civil Twilight 6:03 AM EST 6:17 PM EST
Nautical Twilight 5:32 AM EST 6:48 PM EST
Astronomical Twilight 5:01 AM EST 7:20 PM EST
Moon 10:20 PM EST (3/1) 8:17 AM EST (3/1)
Length of Visible Light 12h 13m
Length of Day
11h 20m
Waning Gibbous, 83% of the Moon is Illuminated
Mar 1
Waning Gibbous
Mar 4
Last Quarter
Mar 11
New
Mar 19
First Quarter
Mar 27
Full

Hourly Weather History & Observations

Time (EST) Temp. Windchill Dew Point Humidity Pressure Visibility Wind Dir Wind Speed Gust Speed Precip Events Conditions
12:54 AM 35.1 °F 30.1 °F 28.9 °F 78% 29.67 in 10.0 mi West 5.8 mph - N/A   Clear
1:54 AM 35.1 °F 27.9 °F 28.9 °F 78% 29.67 in 10.0 mi West 9.2 mph - N/A   Clear
2:54 AM 34.0 °F 26.0 °F 28.0 °F 79% 29.67 in 10.0 mi West 10.4 mph - N/A   Clear
3:54 AM 33.1 °F 26.1 °F 28.0 °F 82% 29.68 in 9.0 mi WNW 8.1 mph - N/A   Clear
4:54 AM 33.1 °F 24.9 °F 28.0 °F 82% 29.70 in 8.0 mi WNW 10.4 mph - N/A   Clear
5:54 AM 32.0 °F 25.6 °F 27.0 °F 82% 29.71 in 7.0 mi WNW 6.9 mph - N/A   Clear
6:54 AM 32.0 °F 24.2 °F 28.0 °F 85% 29.72 in 6.0 mi WNW 9.2 mph - N/A   Clear
7:54 AM 36.0 °F 27.5 °F 28.9 °F 76% 29.73 in 8.0 mi WNW 12.7 mph - N/A   Clear
8:54 AM 41.0 °F 32.5 °F 28.9 °F 62% 29.74 in 10.0 mi NNW 17.3 mph 25.3 mph N/A   Clear
9:54 AM 45.0 °F 37.9 °F 28.9 °F 53% 29.74 in 10.0 mi NW 16.1 mph - N/A   Partly Cloudy
10:54 AM 45.0 °F 37.1 °F 26.1 °F 48% 29.73 in 10.0 mi NW 19.6 mph 26.5 mph N/A   Mostly Cloudy
11:54 AM 43.0 °F 34.8 °F 25.0 °F 49% 29.74 in 10.0 mi NNW 18.4 mph 26.5 mph N/A   Overcast
12:54 PM 44.1 °F 36.8 °F 25.0 °F 47% 29.74 in 10.0 mi NW 16.1 mph - N/A   Overcast
1:54 PM 44.1 °F 36.5 °F 25.0 °F 47% 29.73 in 10.0 mi NW 17.3 mph - N/A   Overcast
2:54 PM 43.0 °F 35.7 °F 25.0 °F 49% 29.73 in 10.0 mi NW 15.0 mph - N/A   Overcast
3:54 PM 43.0 °F 36.4 °F 26.1 °F 51% 29.74 in 10.0 mi NW 12.7 mph - N/A   Overcast
4:54 PM 43.0 °F 37.2 °F 26.1 °F 51% 29.74 in 10.0 mi WNW 10.4 mph - N/A   Overcast
5:54 PM 42.1 °F 36.6 °F 26.1 °F 53% 29.76 in 10.0 mi WNW 9.2 mph - N/A   Overcast
6:54 PM 39.9 °F 34.5 °F 26.1 °F 58% 29.78 in 10.0 mi WNW 8.1 mph - N/A   Overcast
7:54 PM 39.0 °F 33.4 °F 26.1 °F 60% 29.79 in 10.0 mi WNW 8.1 mph - N/A   Overcast
8:54 PM 37.9 °F 31.5 °F 26.1 °F 62% 29.80 in 10.0 mi NW 9.2 mph - N/A   Overcast
9:54 PM 36.0 °F 29.0 °F 24.1 °F 62% 29.81 in 10.0 mi NW 9.2 mph - N/A   Clear
10:54 PM 36.0 °F 29.0 °F 24.1 °F 62% 29.81 in 10.0 mi NW 9.2 mph - N/A   Overcast
11:54 PM 36.0 °F 29.0 °F 25.0 °F 64% 29.81 in 10.0 mi NW 9.2 mph - N/A   Overcast